[[{"header":{"parameterUnit":"m.s-1","parameterCategory":2,"la1":30.2991,"la2":30.254,"lo1":-89.0895,"lo2":-89.0444,"dy":0.0017,"dx":0.0017,"nx":28,"ny":28,"refTime":"2024-10-13T03:00:00:Z","depth":"0","parameterNumber":2,"parameterNumberName":"U-component_of_CURRENTS"},"data":[0,0,0,0,0,0,0,0,0,0,0,0,0,0,0,0,0,0,0,0,0,0,0,0,0,0,0,0,0,0,0,0,0,0,0,0,0,0,0,0,0,0,0,0,0,0,0,0,0,0,0,0,0,0,0,0,0,0,0.2688,0.2689,0,0.2733,0.2733,0.2732,0.2736,0.2737,0.2737,0.2737,0.2787,0.2788,0.2789,0,0,0,0,0,0,0,0,0,0,0,0,0,0.2509,0.2512,0.2688,0.2689,0.2691,0.2733,0.2733,0.2732,0.2736,0.2737,0.2737,0.2738,0.2787,0.2788,0.2789,0,0,0,0,0,0,0,0,0,0,0,0,0,0.2564,0.2513,0.2687,0.2705,0.2708,0.2733,0.2733,0.2732,0.2736,0.2737,0.2737,0.2738,0.2786,0.2787,0.2789,0.2783,0,0,0.2793,0.2793,0,0,0,0,0,0,0,0,0.2561,0.2569,0.2701,0.2704,0.2708,0.2739,0.2689,0.2753,0.2736,0.2714,0.2737,0.2738,0.2778,0.278,0.2771,0.2785,0.2787,0.2793,0.2794,0.2794,0.2795,0,0,0,0,0,0,0,0.2557,0.2567,0.2695,0.2703,0.2707,0.268,0.2688,0.2699,0.2733,0.2716,0.2719,0.2741,0.2778,0.277,0.2773,0.2788,0.2793,0.2794,0.2795,0.2795,0.2905,0.2907,0,0,0,0,0,0,0.2578,0.2564,0.2694,0.2697,0.2646,0.2683,0.2692,0.2719,0.2733,0.2739,0.274,0.2741,0.2767,0.2771,0.2775,0.283,0.2794,0.2795,0.2796,0.2902,0.2905,0.2907,0,0,0,0,0,0,0.2574,0.2589,0.2692,0.2639,0.2652,0.2688,0.2717,0.272,0.2718,0.2753,0.2757,0.2737,0.2768,0.2773,0.2811,0.283,0.2796,0.2797,0.29,0.2903,0.2906,0.2901,0,0,0,0,0,0,0.2568,0.2587,0.2593,0.2641,0.2656,0.27,0.2718,0.2721,0.2736,0.2737,0.2752,0.2757,0.2769,0.2809,0.2812,0.2831,0.2798,0.2897,0.2901,0.2905,0.2898,0.2904,0.2908,0,0,0,0,0,0.2562,0.2592,0.2593,0.2608,0.267,0.27,0.2703,0.2723,0.2735,0.2723,0.2762,0.2757,0.2837,0.2811,0.2814,0.2834,0.2895,0.29,0.2905,0.2896,0.2903,0.2908,0,0,0,0,0,0,0.2523,0.2598,0.2599,0.265,0.2664,0.2705,0.2712,0.2722,0.2738,0.2749,0.2772,0.2779,0.2823,0.2835,0.2806,0.2884,0.287,0.2875,0.2862,0.2868,0.2873,0.2835,0.2799,0,0,0,0,0,0.2516,0.2547,0.2601,0.2627,0.2647,0.2671,0.2682,0.2697,0.2732,0.2738,0.2753,0.2793,0.2843,0.286,0.289,0.292,0.2935,0.2943,0.2948,0.2951,0.2928,0.2983,0.2989,0.2923,0.2923,0.2923,0,0,0.2507,0.255,0.2567,0.2618,0.2636,0.2651,0.2677,0.2704,0.2714,0.2743,0.2757,0.2801,0.2857,0.29,0.2921,0.2912,0.2985,0.2957,0.2959,0.2933,0.2988,0.2994,0.3,0.2926,0.2926,0.2925,0,0,0.2493,0.2545,0.2553,0.2577,0.2615,0.2637,0.2646,0.2682,0.2697,0.2721,0.2769,0.2822,0.2862,0.2915,0.2951,0.2999,0.3008,0.3021,0.3008,0.3063,0.3068,0.3072,0.3117,0.3126,0.3023,0.3023,0.3023,0,0.2462,0.2498,0.2552,0.2567,0.2591,0.2632,0.2638,0.2663,0.2699,0.2726,0.2725,0.2832,0.2869,0.2959,0.2979,0.3005,0.3034,0.2976,0.3065,0.307,0.3074,0.3119,0.3129,0.3023,0.3023,0.3023,0.3023,0,0.2456,0.2477,0.2495,0.2524,0.2549,0.257,0.2627,0.2643,0.2671,0.2704,0.2777,0.2834,0.29,0.2935,0.2966,0.3037,0.3049,0.3062,0.3038,0.3079,0.3126,0.3136,0.3024,0.3024,0.3024,0.3023,0,0,0.2392,0.2468,0.2469,0.2473,0.2536,0.2555,0.2595,0.2644,0.2679,0.2718,0.2763,0.2857,0.2894,0.2937,0.2997,0.3037,0.3102,0.3054,0.3057,0.3076,0.322,0.3198,0.3206,0.3131,0.3133,0.3134,0.3246,0,0.2349,0.2366,0.2425,0.243,0.2442,0.2516,0.2547,0.2606,0.266,0.2713,0.2805,0.2869,0.29,0.2939,0.299,0.3085,0.3124,0.307,0.3196,0.3199,0.3155,0.3215,0.3085,0.3171,0.3255,0.3256,0.3257,0,0.2306,0.2326,0.2329,0.2389,0.2405,0.2417,0.2493,0.2533,0.2644,0.2691,0.2778,0.285,0.2953,0.2951,0.3107,0.3074,0.3133,0.3185,0.3192,0.3168,0.3193,0.3143,0.3184,0.3077,0.3272,0.3271,0.327,0,0.2215,0.226,0.2258,0.228,0.2353,0.2371,0.2415,0.2516,0.2559,0.268,0.2717,0.2858,0.2918,0.3024,0.3149,0.3134,0.3297,0.33,0.333,0.333,0.3239,0.3228,0.3164,0.3373,0.3372,0.3372,0.3372,0,0.2155,0.2143,0.2213,0.2214,0.222,0.2303,0.233,0.2405,0.2502,0.2562,0.2697,0.2758,0.293,0.3054,0.3157,0.3285,0.3318,0.3326,0.3358,0.3238,0.3226,0.3144,0.3095,0.3376,0.3375,0.3375,0.3374,0,0.2036,0.2089,0.208,0.215,0.2171,0.2173,0.2255,0.229,0.2394,0.2471,0.2507,0.2689,0.2864,0.3037,0.3223,0.3285,0.3326,0.3442,0.3287,0.3297,0.3202,0.3159,0.3063,0.2994,0.3491,0.3491,0.3491,0,0.1964,0.1952,0.2011,0.2014,0.2037,0.2062,0.2095,0.2212,0.226,0.2429,0.2465,0.2647,0.2784,0.3061,0.3225,0.3418,0.3316,0.3366,0.3302,0.3172,0.315,0.3045,0.2987,0.3195,0.3193,0.3191,0.319,0,0.1816,0.1847,0.1861,0.1879,0.1902,0.1932,0.1991,0.2013,0.217,0.2243,0.238,0.25,0.2783,0.2939,0.3181,0.3278,0.3187,0.3331,0.3237,0.2936,0.2777,0.2734,0.3147,0.3173,0.3174,0.3176,0.3176,0.3177,0.169,0.1675,0.1717,0.1728,0.1762,0.1799,0.1799,0.1891,0.1958,0.2075,0.224,0.237,0.2611,0.2947,0.3041,0.307,0.3093,0.3007,0.2979,0.2895,0.2765,0.3135,0.317,0.3172,0.3173,0.3175,0.3176,0,0.1525,0.1553,0.1566,0.159,0.1594,0.1664,0.1728,0.173,0.1784,0.1935,0.2043,0.2214,0.2386,0.2583,0.2752,0.2721,0.2638,0.2659,0.2457,0.2432,0.2797,0.2717,0.2605,0.2605,0.2606,0.2606,0.2606,0.2606,0.1434,0.1413,0.145,0.1418,0.1445,0.1432,0.1455,0.1493,0.1574,0.1666,0.1751,0.189,0.216,0.2353,0.2385,0.2359,0.2209,0.2145,0.2166,0.2388,0.2416,0.2444,0.2356,0.217,0.2169,0.1706,0.1702,0.17]},{"header":{"parameterUnit":"m.s-1","parameterCategory":2,"la1":30.2991,"la2":30.254,"lo1":-89.0895,"lo2":-89.0444,"dy":0.0017,"dx":0.0017,"nx":28,"ny":28,"refTime":"2024-10-13T03:00:00:Z","depth":"0","parameterNumber":3,"parameterNumberName":"V-component_of_CURRENTS"},"data":[0,0,0,0,0,0,0,0,0,0,0,0,0,0,0,0,0,0,0,0,0,0,0,0,0,0,0,0,0,0,0,0,0,0,0,0,0,0,0,0,0,0,0,0,0,0,0,0,0,0,0,0,0,0,0,0,0,0,-0.0793,-0.0794,0,-0.0793,-0.0792,-0.0792,-0.0803,-0.0804,-0.0805,-0.0805,-0.0814,-0.0814,-0.0813,0,0,0,0,0,0,0,0,0,0,0,0,0,-0.0705,-0.0706,-0.0793,-0.0794,-0.0794,-0.0793,-0.0792,-0.0792,-0.0803,-0.0804,-0.0805,-0.0806,-0.0815,-0.0814,-0.0813,0,0,0,0,0,0,0,0,0,0,0,0,0,-0.0721,-0.0707,-0.0793,-0.0805,-0.0806,-0.0793,-0.0792,-0.0791,-0.0802,-0.0804,-0.0805,-0.0806,-0.0815,-0.0814,-0.0813,-0.0779,0,0,-0.081,-0.081,0,0,0,0,0,0,0,0,-0.0721,-0.0724,-0.0802,-0.0804,-0.0806,-0.0805,-0.0765,-0.079,-0.0802,-0.0796,-0.0805,-0.0807,-0.0816,-0.0815,-0.0802,-0.078,-0.078,-0.081,-0.0809,-0.0809,-0.0809,0,0,0,0,0,0,0,-0.072,-0.0723,-0.0786,-0.0803,-0.0805,-0.0777,-0.0781,-0.0769,-0.0793,-0.0797,-0.08,-0.081,-0.0816,-0.0802,-0.0802,-0.078,-0.081,-0.0809,-0.0809,-0.0808,-0.0808,-0.0809,0,0,0,0,0,0,-0.0737,-0.0723,-0.0786,-0.0787,-0.0773,-0.0778,-0.0782,-0.0798,-0.0793,-0.0796,-0.0809,-0.0811,-0.0803,-0.0803,-0.0803,-0.0793,-0.0809,-0.0808,-0.0808,-0.0808,-0.0808,-0.0809,0,0,0,0,0,0,-0.0735,-0.0743,-0.0786,-0.076,-0.0764,-0.078,-0.0797,-0.0798,-0.0794,-0.0803,-0.0805,-0.0806,-0.0804,-0.0804,-0.0796,-0.0793,-0.0808,-0.0807,-0.0807,-0.0808,-0.0809,-0.0756,0,0,0,0,0,0,-0.0733,-0.0742,-0.0751,-0.0761,-0.0767,-0.0772,-0.0796,-0.0797,-0.0801,-0.0803,-0.0801,-0.0803,-0.0805,-0.0797,-0.0795,-0.0792,-0.0806,-0.0806,-0.0807,-0.0808,-0.0757,-0.0755,-0.0753,0,0,0,0,0,-0.073,-0.0742,-0.0751,-0.0759,-0.0781,-0.0772,-0.077,-0.0781,-0.08,-0.0784,-0.0793,-0.0804,-0.0804,-0.0795,-0.0793,-0.079,-0.0806,-0.0807,-0.0808,-0.0758,-0.0755,-0.0753,0,0,0,0,0,0,-0.0707,-0.0746,-0.0755,-0.0779,-0.0773,-0.0776,-0.0771,-0.078,-0.0772,-0.0779,-0.0791,-0.0792,-0.0791,-0.0799,-0.0791,-0.08,-0.0814,-0.0815,-0.0777,-0.0774,-0.0772,-0.0741,-0.0805,0,0,0,0,0,-0.0708,-0.0728,-0.0744,-0.0758,-0.0757,-0.0762,-0.076,-0.0765,-0.0767,-0.0765,-0.0766,-0.078,-0.0791,-0.0789,-0.0795,-0.078,-0.0775,-0.0787,-0.0785,-0.0783,-0.076,-0.0755,-0.075,-0.0813,-0.0813,-0.0813,0,0,-0.0703,-0.0727,-0.0738,-0.0754,-0.0752,-0.0737,-0.0762,-0.0757,-0.0744,-0.0767,-0.0747,-0.0767,-0.0789,-0.0781,-0.0783,-0.0786,-0.0764,-0.0785,-0.0782,-0.076,-0.0756,-0.0749,-0.0743,-0.0814,-0.0814,-0.0814,0,0,-0.0688,-0.0722,-0.0721,-0.0718,-0.0722,-0.0721,-0.0721,-0.0719,-0.0716,-0.0699,-0.0729,-0.0738,-0.0741,-0.0752,-0.0762,-0.0751,-0.0757,-0.0774,-0.0726,-0.0723,-0.0717,-0.0711,-0.0691,-0.0684,-0.0768,-0.0768,-0.0768,0,-0.0666,-0.0683,-0.0712,-0.0703,-0.0699,-0.0714,-0.069,-0.0686,-0.068,-0.0671,-0.069,-0.0702,-0.0723,-0.072,-0.0725,-0.0742,-0.0738,-0.0728,-0.0716,-0.0711,-0.0706,-0.0687,-0.068,-0.0766,-0.0766,-0.0766,-0.0767,0,-0.0651,-0.0653,-0.065,-0.0647,-0.0642,-0.0625,-0.063,-0.0616,-0.0623,-0.062,-0.0615,-0.0637,-0.0645,-0.0667,-0.0689,-0.0676,-0.0684,-0.0715,-0.0712,-0.0695,-0.0678,-0.0671,-0.0762,-0.0763,-0.0764,-0.0764,0,0,-0.06,-0.0629,-0.0623,-0.0607,-0.0611,-0.0596,-0.0581,-0.0557,-0.0536,-0.0542,-0.0512,-0.0546,-0.0563,-0.0577,-0.0614,-0.0609,-0.058,-0.0642,-0.0643,-0.0603,-0.0556,-0.0545,-0.0537,-0.061,-0.0608,-0.0607,-0.0555,0,-0.0556,-0.0536,-0.0567,-0.0522,-0.0498,-0.0517,-0.0494,-0.0484,-0.0479,-0.0452,-0.0482,-0.0475,-0.0531,-0.0535,-0.0541,-0.0575,-0.0561,-0.059,-0.0595,-0.0594,-0.057,-0.0529,-0.05,-0.045,-0.0549,-0.0548,-0.0547,0,-0.0513,-0.0503,-0.0467,-0.0448,-0.0439,-0.0419,-0.0383,-0.0371,-0.0357,-0.0356,-0.036,-0.0384,-0.039,-0.0439,-0.0459,-0.0477,-0.0503,-0.0525,-0.0524,-0.0521,-0.057,-0.0486,-0.0434,-0.0516,-0.0537,-0.0538,-0.0539,0,-0.0443,-0.0424,-0.0395,-0.0391,-0.0377,-0.0356,-0.0346,-0.0331,-0.031,-0.0295,-0.0269,-0.0293,-0.0292,-0.0333,-0.039,-0.0423,-0.0395,-0.0454,-0.0459,-0.0458,-0.0436,-0.0435,-0.0442,-0.0443,-0.0444,-0.0444,-0.0444,0,-0.0379,-0.0341,-0.0358,-0.0335,-0.0282,-0.0298,-0.0242,-0.0239,-0.0218,-0.017,-0.0218,-0.0176,-0.0265,-0.027,-0.0337,-0.0363,-0.0358,-0.0422,-0.0436,-0.0418,-0.0417,-0.0491,-0.0547,-0.0442,-0.0442,-0.0443,-0.0443,0,-0.0297,-0.0314,-0.0269,-0.0256,-0.0249,-0.0211,-0.0186,-0.0143,-0.0139,-0.0076,-0.0067,-0.0078,-0.0083,-0.0156,-0.0206,-0.0282,-0.0346,-0.033,-0.0293,-0.0304,-0.0406,-0.0461,-0.0444,-0.046,-0.0327,-0.0326,-0.0326,0,-0.0247,-0.0224,-0.0214,-0.0188,-0.0177,-0.0135,-0.0101,-0.0101,-0.0057,-0.0003,0.0043,0.0054,0.0088,0.002,-0.0103,-0.0187,-0.028,-0.0235,-0.03,-0.0377,-0.045,-0.0482,-0.05,-0.0248,-0.0247,-0.0246,-0.0245,0,-0.0147,-0.0161,-0.0147,-0.0099,-0.0062,-0.0016,0.0033,0.0076,0.0097,0.0162,0.025,0.0283,0.0215,0.0154,0.0017,-0.0071,-0.0276,-0.0218,-0.0308,-0.038,-0.0404,-0.0438,-0.0315,-0.0237,-0.0238,-0.0238,-0.0239,-0.0239,-0.008,-0.0061,-0.0057,-0.0006,0.0039,0.0118,0.0178,0.0235,0.0323,0.0432,0.0426,0.0512,0.0375,0.0197,0.006,-0.0182,-0.0202,-0.0269,-0.0324,-0.0345,-0.0373,-0.0219,-0.0162,-0.0162,-0.0163,-0.0163,-0.0163,0,0.0001,0.0007,0.0049,0.0105,0.018,0.0184,0.028,0.0352,0.0481,0.0574,0.0658,0.0673,0.05,0.0275,-0.0045,-0.0245,-0.0328,-0.0365,-0.0416,-0.0427,-0.0292,-0.0305,-0.0264,-0.0264,-0.0264,-0.0264,-0.0264,-0.0264,0.0049,0.0087,0.0096,0.0226,0.0274,0.0388,0.0453,0.0554,0.0643,0.0801,0.0878,0.0913,0.0799,0.0166,-0.0251,-0.0371,-0.0511,-0.0538,-0.0608,-0.055,-0.0547,-0.0543,-0.0569,-0.0584,-0.0584,-0.0703,-0.0705,-0.0706]}],[{"header":{"parameterUnit":"m.s-1","parameterCategory":2,"la1":30.2991,"la2":30.254,"lo1":-89.0895,"lo2":-89.0444,"dy":0.0017,"dx":0.0017,"nx":28,"ny":28,"refTime":"2024-10-13T03:00:00:Z","depth":"2","parameterNumber":2,"parameterNumberName":"U-component_of_CURRENTS"},"data":[0,0,0,0,0,0,0,0,0,0,0,0,0,0,0,0,0,0,0,0,0,0,0,0,0,0,0,0,0,0,0,0,0,0,0,0,0,0,0,0,0,0,0,0,0,0,0,0,0,0,0,0,0,0,0,0,0,0,0.114,0.1141,0,0.1206,0.1207,0.1208,0.121,0.1208,0.1207,0.1206,0.114,0.1139,0.1139,0,0,0,0,0,0,0,0,0,0,0,0,0,0.1303,0.1299,0.114,0.1141,0.1141,0.1206,0.1207,0.1209,0.121,0.1208,0.1207,0.1205,0.114,0.1139,0.1139,0,0,0,0,0,0,0,0,0,0,0,0,0,0.129,0.1297,0.114,0.1146,0.1147,0.1206,0.1207,0.1209,0.121,0.1208,0.1206,0.1205,0.114,0.1139,0.1139,0.117,0,0,0.1136,0.1135,0,0,0,0,0,0,0,0,0.1291,0.1285,0.1145,0.1146,0.1147,0.1194,0.1241,0.1188,0.1211,0.1191,0.1206,0.1204,0.1144,0.1143,0.1168,0.1167,0.1164,0.1136,0.1135,0.1135,0.1134,0,0,0,0,0,0,0,0.1291,0.1284,0.1171,0.1145,0.1147,0.1244,0.1238,0.1233,0.1178,0.1192,0.1192,0.1193,0.1144,0.1169,0.1165,0.1163,0.1136,0.1135,0.1134,0.1134,0.1134,0.1134,0,0,0,0,0,0,0.126,0.1282,0.1169,0.1172,0.1211,0.1241,0.1235,0.1184,0.1181,0.1178,0.1194,0.1192,0.1171,0.1167,0.1163,0.1193,0.1135,0.1134,0.1133,0.1133,0.1134,0.1134,0,0,0,0,0,0,0.1263,0.1248,0.1166,0.123,0.1225,0.1237,0.1183,0.1186,0.1261,0.1183,0.1178,0.1269,0.117,0.1164,0.1186,0.119,0.1133,0.1133,0.1132,0.1133,0.1134,0.1256,0,0,0,0,0,0,0.1266,0.1247,0.1213,0.1225,0.122,0.1241,0.1184,0.1189,0.1259,0.1259,0.1245,0.1234,0.1168,0.1188,0.1185,0.1187,0.1132,0.1132,0.1133,0.1134,0.1251,0.126,0.1269,0,0,0,0,0,0.1271,0.1277,0.1209,0.1197,0.1166,0.1244,0.1255,0.1262,0.1265,0.1321,0.1292,0.1237,0.1189,0.119,0.1186,0.1188,0.1131,0.1133,0.1134,0.1247,0.1259,0.1268,0,0,0,0,0,0,0.1353,0.1276,0.1204,0.1183,0.1209,0.1244,0.1314,0.1312,0.1345,0.1342,0.1277,0.1266,0.1283,0.1229,0.123,0.1185,0.1139,0.114,0.1226,0.1237,0.1246,0.1279,0.1131,0,0,0,0,0,0.1337,0.1316,0.127,0.127,0.1291,0.1309,0.1347,0.1342,0.1364,0.1382,0.1372,0.1328,0.1281,0.1259,0.1234,0.1233,0.1265,0.1218,0.1227,0.1235,0.1257,0.1332,0.1352,0.1138,0.1138,0.1138,0,0,0.1363,0.1331,0.131,0.1286,0.1322,0.1342,0.1335,0.1419,0.1404,0.1365,0.1403,0.1394,0.1299,0.1283,0.128,0.1238,0.1318,0.1237,0.1245,0.1262,0.1336,0.1357,0.1377,0.1139,0.1139,0.1139,0,0,0.1453,0.1394,0.1402,0.1406,0.1432,0.1443,0.1479,0.1525,0.152,0.152,0.1489,0.1509,0.1433,0.1394,0.134,0.1393,0.1388,0.136,0.1408,0.1481,0.1501,0.1518,0.1624,0.1649,0.1335,0.1335,0.1335,0,0.1479,0.144,0.1441,0.1451,0.1466,0.1493,0.1523,0.1517,0.1555,0.1548,0.1527,0.151,0.1468,0.1438,0.1441,0.1416,0.1472,0.1376,0.1499,0.1517,0.1533,0.1636,0.1663,0.1341,0.134,0.134,0.1339,0,0.1526,0.1503,0.1559,0.1525,0.1567,0.1625,0.1589,0.1618,0.1612,0.1585,0.1603,0.1585,0.1568,0.1546,0.1493,0.1573,0.1587,0.1534,0.1486,0.1563,0.1665,0.1691,0.1349,0.1347,0.1346,0.1344,0,0,0.1535,0.1568,0.1567,0.1558,0.1596,0.1633,0.1632,0.1631,0.1627,0.163,0.1652,0.1607,0.1662,0.1614,0.1609,0.166,0.1837,0.165,0.1651,0.1781,0.2048,0.1887,0.19,0.1817,0.1821,0.1824,0.209,0,0.1561,0.1587,0.1599,0.1636,0.1663,0.1662,0.1674,0.1661,0.1646,0.1677,0.1652,0.169,0.1655,0.17,0.1747,0.1815,0.1905,0.1773,0.1931,0.1937,0.1804,0.1923,0.172,0.1924,0.2115,0.212,0.2123,0,0.1545,0.1578,0.1619,0.1668,0.1684,0.1707,0.1735,0.1741,0.1747,0.1734,0.177,0.1789,0.1883,0.185,0.2018,0.1942,0.2026,0.2073,0.2082,0.1906,0.1821,0.1866,0.1964,0.2166,0.2163,0.216,0.2157,0,0.1527,0.157,0.1616,0.1616,0.1684,0.1698,0.1752,0.177,0.1779,0.1832,0.1861,0.1944,0.2019,0.212,0.2187,0.2143,0.2377,0.2313,0.2263,0.2254,0.2096,0.2063,0.2483,0.2483,0.2482,0.2482,0.2481,0,0.1509,0.1548,0.1603,0.1609,0.1662,0.1725,0.1784,0.1795,0.1872,0.1909,0.1947,0.2008,0.2097,0.2199,0.2267,0.2336,0.2446,0.2321,0.2315,0.2129,0.2098,0.229,0.2264,0.2492,0.249,0.2488,0.2486,0,0.1493,0.1531,0.157,0.1631,0.1655,0.1695,0.1803,0.1826,0.1915,0.1975,0.2021,0.2111,0.2258,0.2327,0.2506,0.2424,0.2518,0.2527,0.2309,0.2268,0.2347,0.2324,0.2525,0.2521,0.2518,0.2516,0.2514,0,0.1475,0.1492,0.1552,0.1562,0.16,0.1674,0.1722,0.1829,0.1856,0.202,0.2042,0.2224,0.2285,0.2454,0.2391,0.2475,0.2573,0.2311,0.2152,0.2379,0.2355,0.2336,0.2317,0.2041,0.2035,0.203,0.2027,0,0.1425,0.146,0.1496,0.1523,0.1558,0.1608,0.1686,0.172,0.1852,0.1915,0.2039,0.2141,0.2256,0.2196,0.2235,0.2254,0.2255,0.2211,0.2564,0.2,0.1926,0.1899,0.1898,0.1985,0.1989,0.1992,0.1994,0.1996,0.1372,0.1379,0.1409,0.1447,0.149,0.1527,0.1547,0.1622,0.1697,0.1754,0.1943,0.1983,0.1913,0.184,0.1863,0.1894,0.2022,0.1938,0.1954,0.1974,0.1808,0.1725,0.1722,0.1724,0.1727,0.1729,0.173,0,0.1245,0.1285,0.1312,0.1348,0.1375,0.1436,0.1492,0.1481,0.1519,0.1578,0.1671,0.1479,0.1456,0.1528,0.1462,0.1433,0.1444,0.1453,0.1449,0.1489,0.1525,0.1337,0.1127,0.1126,0.1125,0.1123,0,0,0.1158,0.1161,0.1203,0.1212,0.1255,0.1244,0.126,0.1258,0.1266,0.1239,0.1218,0.1243,0.1321,0.107,0.1096,0.1135,0.1309,0.1117,0.1591,0.1618,0.1653,0.1788,0.1538,0,0,0,0,0]},{"header":{"parameterUnit":"m.s-1","parameterCategory":2,"la1":30.2991,"la2":30.254,"lo1":-89.0895,"lo2":-89.0444,"dy":0.0017,"dx":0.0017,"nx":28,"ny":28,"refTime":"2024-10-13T03:00:00:Z","depth":"2","parameterNumber":3,"parameterNumberName":"V-component_of_CURRENTS"},"data":[0,0,0,0,0,0,0,0,0,0,0,0,0,0,0,0,0,0,0,0,0,0,0,0,0,0,0,0,0,0,0,0,0,0,0,0,0,0,0,0,0,0,0,0,0,0,0,0,0,0,0,0,0,0,0,0,0,0,-0.0173,-0.0174,0,-0.0211,-0.0212,-0.0213,-0.0246,-0.0246,-0.0246,-0.0246,-0.022,-0.022,-0.0219,0,0,0,0,0,0,0,0,0,0,0,0,0,-0.0231,-0.0229,-0.0173,-0.0174,-0.0174,-0.0211,-0.0212,-0.0213,-0.0246,-0.0246,-0.0246,-0.0246,-0.0221,-0.022,-0.0219,0,0,0,0,0,0,0,0,0,0,0,0,0,-0.0235,-0.0229,-0.0173,-0.0192,-0.0193,-0.0211,-0.0212,-0.0213,-0.0246,-0.0246,-0.0246,-0.0246,-0.0221,-0.022,-0.0219,-0.0212,0,0,-0.0216,-0.0215,0,0,0,0,0,0,0,0,-0.0234,-0.0233,-0.0189,-0.019,-0.0192,-0.022,-0.0223,-0.0208,-0.0246,-0.023,-0.0246,-0.0246,-0.0212,-0.0211,-0.0225,-0.0211,-0.021,-0.0215,-0.0215,-0.0214,-0.0214,0,0,0,0,0,0,0,-0.0234,-0.0232,-0.0193,-0.0189,-0.0191,-0.0232,-0.0232,-0.0221,-0.0223,-0.0232,-0.0233,-0.0231,-0.0213,-0.0226,-0.0225,-0.0209,-0.0215,-0.0215,-0.0214,-0.0214,-0.0207,-0.0208,0,0,0,0,0,0,-0.0215,-0.0231,-0.0191,-0.0193,-0.0209,-0.023,-0.0231,-0.0215,-0.0224,-0.0225,-0.0231,-0.0232,-0.0228,-0.0226,-0.0224,-0.0209,-0.0214,-0.0213,-0.0213,-0.0207,-0.0207,-0.0208,0,0,0,0,0,0,-0.0216,-0.0211,-0.019,-0.0211,-0.0211,-0.0228,-0.0211,-0.0215,-0.0258,-0.0223,-0.0224,-0.0271,-0.0228,-0.0225,-0.022,-0.0208,-0.0213,-0.0212,-0.0206,-0.0207,-0.0208,-0.0182,0,0,0,0,0,0,-0.0217,-0.0211,-0.0208,-0.0209,-0.0208,-0.0202,-0.021,-0.0216,-0.0252,-0.0256,-0.0257,-0.0254,-0.0228,-0.0221,-0.0219,-0.0206,-0.0211,-0.0206,-0.0207,-0.0207,-0.0183,-0.0182,-0.0182,0,0,0,0,0,-0.0219,-0.0226,-0.0207,-0.0204,-0.0198,-0.0202,-0.0206,-0.0223,-0.0255,-0.0266,-0.0266,-0.0255,-0.0225,-0.0221,-0.0218,-0.0205,-0.0205,-0.0206,-0.0207,-0.0183,-0.0182,-0.0182,0,0,0,0,0,0,-0.0259,-0.0228,-0.021,-0.0207,-0.0198,-0.0206,-0.0232,-0.0246,-0.0262,-0.0276,-0.0258,-0.0253,-0.0246,-0.0239,-0.0235,-0.021,-0.0215,-0.0216,-0.0198,-0.0197,-0.0197,-0.0188,-0.021,0,0,0,0,0,-0.0258,-0.0259,-0.0223,-0.023,-0.0225,-0.0236,-0.0249,-0.0254,-0.026,-0.0273,-0.0264,-0.026,-0.0245,-0.0233,-0.0223,-0.0207,-0.0216,-0.0201,-0.02,-0.02,-0.0194,-0.0209,-0.0209,-0.0211,-0.0211,-0.0211,0,0,-0.0269,-0.0265,-0.0258,-0.0239,-0.0246,-0.0231,-0.0247,-0.0272,-0.0249,-0.0263,-0.0254,-0.0263,-0.0246,-0.0222,-0.0218,-0.0213,-0.0205,-0.0201,-0.02,-0.0194,-0.021,-0.0209,-0.0209,-0.0212,-0.0212,-0.0212,0,0,-0.0297,-0.0293,-0.0286,-0.0269,-0.0266,-0.0271,-0.0281,-0.0282,-0.027,-0.025,-0.0261,-0.0267,-0.0239,-0.0221,-0.0208,-0.0205,-0.021,-0.0211,-0.0186,-0.0201,-0.02,-0.02,-0.0209,-0.021,-0.02,-0.02,-0.0199,0,-0.0301,-0.0284,-0.029,-0.0271,-0.0265,-0.0288,-0.0271,-0.0255,-0.0251,-0.0225,-0.0238,-0.023,-0.0228,-0.0196,-0.0195,-0.02,-0.0215,-0.0183,-0.0198,-0.0198,-0.0198,-0.0208,-0.0209,-0.0198,-0.0199,-0.0199,-0.0199,0,-0.0295,-0.0279,-0.0289,-0.026,-0.0265,-0.0264,-0.0228,-0.0219,-0.0224,-0.0195,-0.0172,-0.0178,-0.0174,-0.0176,-0.0178,-0.0179,-0.0192,-0.0203,-0.0195,-0.0196,-0.0207,-0.0209,-0.0197,-0.0197,-0.0198,-0.0198,0,0,-0.0277,-0.0274,-0.0268,-0.0244,-0.0253,-0.0245,-0.0217,-0.0172,-0.0134,-0.0127,-0.0086,-0.0085,-0.0118,-0.0111,-0.0135,-0.0142,-0.0163,-0.0175,-0.0176,-0.0175,-0.0199,-0.0143,-0.014,-0.0183,-0.0183,-0.0183,-0.0206,0,-0.0253,-0.0224,-0.0235,-0.0206,-0.0186,-0.0185,-0.0157,-0.0124,-0.0089,-0.0048,-0.0049,-0.0039,-0.008,-0.0101,-0.0115,-0.015,-0.0167,-0.0156,-0.0206,-0.0207,-0.015,-0.0139,-0.0169,-0.0186,-0.0208,-0.0208,-0.0208,0,-0.0216,-0.0207,-0.0179,-0.0159,-0.0148,-0.0138,-0.0097,-0.007,-0.0015,0.0015,0.0019,0.0007,-0.0014,-0.0061,-0.011,-0.0105,-0.0159,-0.0184,-0.0186,-0.0141,-0.0153,-0.019,-0.0189,-0.0211,-0.0211,-0.021,-0.021,0,-0.0194,-0.0157,-0.0146,-0.013,-0.0116,-0.0093,-0.0098,-0.0052,-0.0011,0.0031,0.0058,0.0039,0.0016,-0.0042,-0.0097,-0.0119,-0.0141,-0.0176,-0.0173,-0.017,-0.0206,-0.0204,-0.0224,-0.0224,-0.0224,-0.0224,-0.0224,0,-0.0154,-0.0132,-0.0124,-0.01,-0.0071,-0.0081,-0.0041,-0.0011,0.0016,0.0074,0.006,0.0098,0.0013,-0.0,-0.0071,-0.0104,-0.0126,-0.016,-0.0167,-0.0197,-0.0195,-0.0226,-0.0226,-0.0225,-0.0225,-0.0224,-0.0224,0,-0.0128,-0.0127,-0.0094,-0.0067,-0.0062,-0.0044,-0.003,0.0023,0.0034,0.0104,0.0102,0.0126,0.0117,0.0063,-0.0013,-0.0059,-0.0105,-0.0121,-0.0139,-0.0146,-0.0138,-0.0137,-0.0127,-0.0125,-0.0123,-0.0122,-0.0121,0,-0.0101,-0.0088,-0.0068,-0.0043,-0.0029,-0.001,0.0012,0.0022,0.0084,0.0144,0.0194,0.0195,0.0254,0.019,0.007,-0.0019,-0.0047,-0.0089,-0.013,-0.0118,-0.0126,-0.0127,-0.0128,-0.0183,-0.0182,-0.0182,-0.0182,0,-0.0042,-0.0056,-0.0044,0.0001,0.0036,0.0077,0.0118,0.0162,0.0197,0.0271,0.0372,0.041,0.0339,0.0255,0.0132,0.0057,-0.0071,-0.0079,-0.0073,-0.018,-0.0166,-0.0175,-0.0176,-0.0178,-0.0178,-0.0178,-0.0179,-0.0179,-0.0005,0.0007,0.0018,0.0064,0.0106,0.0186,0.0238,0.0308,0.0396,0.0511,0.0518,0.0578,0.0394,0.0253,0.012,-0.0026,-0.0025,-0.0089,-0.0093,-0.0097,-0.0076,-0.0058,-0.0046,-0.0046,-0.0046,-0.0045,-0.0045,0,0.0062,0.0063,0.0101,0.0156,0.0224,0.0233,0.0336,0.0405,0.0542,0.061,0.0697,0.0569,0.0453,0.0275,0.0052,-0.0068,-0.0128,-0.0096,-0.0165,-0.0167,-0.017,-0.0156,-0.0146,-0.0146,-0.0146,-0.0147,0,0,0.0107,0.0138,0.0147,0.0265,0.0307,0.042,0.049,0.059,0.0659,0.0758,0.077,0.0718,0.049,0.03,0.0101,-0.0005,-0.0052,-0.0031,0.0058,-0.0004,-0.0004,-0.016,-0.0138,0,0,0,0,0]}],[{"header":{"parameterUnit":"m.s-1","parameterCategory":2,"la1":30.2991,"la2":30.254,"lo1":-89.0895,"lo2":-89.0444,"dy":0.0017,"dx":0.0017,"nx":28,"ny":28,"refTime":"2024-10-13T03:00:00:Z","depth":"4","parameterNumber":2,"parameterNumberName":"U-component_of_CURRENTS"},"data":[0,0,0,0,0,0,0,0,0,0,0,0,0,0,0,0,0,0,0,0,0,0,0,0,0,0,0,0,0,0,0,0,0,0,0,0,0,0,0,0,0,0,0,0,0,0,0,0,0,0,0,0,0,0,0,0,0,0,-0.0243,-0.0243,0,-0.0329,-0.0331,-0.0332,-0.0406,-0.0407,-0.0407,-0.0408,-0.044,-0.044,-0.0441,0,0,0,0,0,0,0,0,0,0,0,0,0,-0.0246,-0.0245,-0.0242,-0.0243,-0.0244,-0.0329,-0.0331,-0.0332,-0.0406,-0.0407,-0.0407,-0.0408,-0.044,-0.044,-0.0441,0,0,0,0,0,0,0,0,0,0,0,0,0,-0.0283,-0.0245,-0.0242,-0.0289,-0.0293,-0.0329,-0.0331,-0.0333,-0.0406,-0.0407,-0.0408,-0.0408,-0.044,-0.044,-0.0441,-0.0429,0,0,-0.0442,-0.0443,0,0,0,0,0,0,0,0,-0.028,-0.0283,-0.0281,-0.0286,-0.0291,-0.0355,-0.0344,-0.0361,-0.0406,-0.0367,-0.0408,-0.0409,-0.0403,-0.0407,-0.0427,-0.043,-0.0431,-0.0442,-0.0443,-0.0443,-0.0443,0,0,0,0,0,0,0,-0.0278,-0.028,-0.028,-0.0282,-0.0288,-0.0341,-0.0347,-0.0348,-0.0381,-0.037,-0.0375,-0.0379,-0.0406,-0.0427,-0.0428,-0.0432,-0.0442,-0.0443,-0.0443,-0.0443,-0.0481,-0.0482,0,0,0,0,0,0,-0.0253,-0.0277,-0.0278,-0.0283,-0.0284,-0.034,-0.0346,-0.0336,-0.0383,-0.039,-0.0378,-0.0382,-0.0425,-0.0428,-0.043,-0.0473,-0.0443,-0.0443,-0.0444,-0.0481,-0.0481,-0.0482,0,0,0,0,0,0,-0.0253,-0.0252,-0.0274,-0.028,-0.0286,-0.0338,-0.0327,-0.0337,-0.0377,-0.0389,-0.0396,-0.0408,-0.0426,-0.0429,-0.0442,-0.0472,-0.0444,-0.0444,-0.048,-0.0481,-0.0482,-0.0523,0,0,0,0,0,0,-0.0252,-0.0251,-0.0243,-0.0278,-0.0285,-0.0311,-0.0326,-0.0339,-0.0375,-0.0382,-0.0416,-0.0419,-0.0427,-0.0441,-0.0443,-0.0472,-0.0445,-0.0479,-0.048,-0.0482,-0.052,-0.0525,-0.0529,0,0,0,0,0,-0.0252,-0.0243,-0.0242,-0.0243,-0.0269,-0.0311,-0.0321,-0.0363,-0.0376,-0.04,-0.0414,-0.0419,-0.0451,-0.0442,-0.0444,-0.0474,-0.0478,-0.048,-0.0481,-0.0519,-0.0524,-0.0529,0,0,0,0,0,0,-0.0255,-0.025,-0.025,-0.0243,-0.0278,-0.0323,-0.0346,-0.037,-0.0403,-0.0411,-0.042,-0.0424,-0.0451,-0.0449,-0.0439,-0.0488,-0.0469,-0.0471,-0.0496,-0.0502,-0.0506,-0.0476,-0.0445,0,0,0,0,0,-0.0243,-0.0228,-0.025,-0.0248,-0.0263,-0.0305,-0.0328,-0.036,-0.0388,-0.0407,-0.0443,-0.0459,-0.0456,-0.0467,-0.0479,-0.0497,-0.0475,-0.0519,-0.0524,-0.0527,-0.0504,-0.0516,-0.0519,-0.0487,-0.0487,-0.0487,0,0,-0.0242,-0.0239,-0.0232,-0.0247,-0.0276,-0.031,-0.0323,-0.0368,-0.0396,-0.04,-0.0466,-0.0478,-0.0462,-0.0492,-0.0505,-0.0496,-0.0522,-0.0529,-0.0532,-0.0506,-0.0518,-0.0521,-0.0524,-0.0488,-0.0488,-0.0488,0,0,-0.0247,-0.0235,-0.0232,-0.026,-0.0298,-0.0326,-0.034,-0.0407,-0.0434,-0.0475,-0.0485,-0.0507,-0.0535,-0.0536,-0.0525,-0.0552,-0.0544,-0.0574,-0.0574,-0.0587,-0.059,-0.0592,-0.0555,-0.0554,-0.0578,-0.0578,-0.0578,0,-0.0252,-0.0242,-0.0246,-0.0268,-0.0289,-0.0333,-0.0361,-0.0393,-0.0466,-0.0466,-0.05,-0.0531,-0.0545,-0.0527,-0.0551,-0.0562,-0.0553,-0.0558,-0.0592,-0.0594,-0.0595,-0.0558,-0.0555,-0.058,-0.058,-0.058,-0.0579,0,-0.0263,-0.0265,-0.0276,-0.0301,-0.0329,-0.0365,-0.0401,-0.0448,-0.0484,-0.0503,-0.0523,-0.0552,-0.0554,-0.0584,-0.0574,-0.0591,-0.0575,-0.0597,-0.0579,-0.0601,-0.056,-0.0556,-0.0583,-0.0582,-0.0582,-0.0581,0,0,-0.0252,-0.0273,-0.028,-0.0286,-0.0347,-0.0369,-0.0409,-0.0431,-0.0431,-0.0507,-0.05,-0.0533,-0.0547,-0.0536,-0.0554,-0.0582,-0.0597,-0.0601,-0.06,-0.056,-0.0595,-0.0459,-0.0442,-0.0641,-0.0641,-0.0641,-0.0558,0,-0.0265,-0.0288,-0.0299,-0.0335,-0.0353,-0.0388,-0.0411,-0.0436,-0.0458,-0.0474,-0.0479,-0.0481,-0.0524,-0.0529,-0.0564,-0.0589,-0.0592,-0.0614,-0.0581,-0.0578,-0.0453,-0.0435,-0.0641,-0.0556,-0.0555,-0.0554,-0.0554,0,-0.0275,-0.0284,-0.0312,-0.0322,-0.0332,-0.0357,-0.0374,-0.0398,-0.0403,-0.0409,-0.0414,-0.0423,-0.044,-0.049,-0.0523,-0.0541,-0.0558,-0.0585,-0.0583,-0.0432,-0.0436,-0.0533,-0.0548,-0.0548,-0.0549,-0.0549,-0.055,0,-0.0265,-0.0287,-0.0299,-0.0315,-0.0347,-0.0347,-0.0358,-0.0373,-0.0365,-0.0356,-0.0345,-0.0367,-0.0366,-0.0419,-0.0454,-0.0501,-0.0481,-0.0548,-0.0425,-0.0415,-0.0547,-0.0546,-0.0553,-0.0553,-0.0553,-0.0553,-0.0553,0,-0.0267,-0.0279,-0.0285,-0.0302,-0.0289,-0.0317,-0.0301,-0.031,-0.0304,-0.0275,-0.0299,-0.0281,-0.0358,-0.0355,-0.0414,-0.0373,-0.0437,-0.039,-0.0381,-0.0564,-0.0566,-0.0543,-0.0543,-0.055,-0.0551,-0.0551,-0.0552,0,-0.0268,-0.0278,-0.0293,-0.0304,-0.029,-0.0284,-0.0257,-0.0246,-0.024,-0.0206,-0.0195,-0.0203,-0.0189,-0.0222,-0.0273,-0.0279,-0.0284,-0.025,-0.0378,-0.0382,-0.0222,-0.0226,-0.0117,-0.0111,-0.0107,-0.0103,-0.0099,0,-0.027,-0.028,-0.0289,-0.0271,-0.027,-0.0245,-0.0227,-0.0215,-0.0198,-0.0158,-0.0138,-0.0093,-0.0095,-0.0028,-0.0094,-0.01,-0.012,-0.0094,-0.0218,-0.0173,-0.0176,-0.0187,-0.0197,-0.0092,-0.0091,-0.0089,-0.0088,0,-0.0278,-0.0293,-0.0305,-0.0272,-0.0242,-0.0208,-0.0173,-0.0142,-0.0126,-0.0114,-0.0041,0.0001,0.0054,0.0038,0.0086,0.0042,-0.0108,-0.0046,-0.0059,-0.0176,-0.0142,-0.0152,-0.0167,-0.0072,-0.0074,-0.0076,-0.0077,0,-0.029,-0.0293,-0.0304,-0.0269,-0.0228,-0.0179,-0.0157,-0.0103,-0.0072,-0.0019,0.0009,0.0049,0.0062,0.0118,0.0125,0.0153,0.011,0.0078,0.0057,0.0038,0.005,0.0114,0.0302,0,0,0,0,0,-0.029,-0.0291,-0.028,-0.0241,-0.0203,-0.0178,-0.013,-0.0114,-0.0074,-0.0002,0.0013,0.0069,0.0145,0.0152,0.0205,0.0163,0.0087,0.0225,0.0031,0.0019,0.0,-0.0001,0,0,0,0,0,0,-0.0287,-0.029,-0.0293,-0.0229,-0.019,-0.0144,-0.0116,-0.009,-0.0043,0.0003,0.0037,0.0088,0.0138,0.0113,0.0205,0.0212,0.0101,0.0255,0.0257,0.003,0.0013,-0.0002,-0.001,0,0,0,0,0]},{"header":{"parameterUnit":"m.s-1","parameterCategory":2,"la1":30.2991,"la2":30.254,"lo1":-89.0895,"lo2":-89.0444,"dy":0.0017,"dx":0.0017,"nx":28,"ny":28,"refTime":"2024-10-13T03:00:00:Z","depth":"4","parameterNumber":3,"parameterNumberName":"V-component_of_CURRENTS"},"data":[0,0,0,0,0,0,0,0,0,0,0,0,0,0,0,0,0,0,0,0,0,0,0,0,0,0,0,0,0,0,0,0,0,0,0,0,0,0,0,0,0,0,0,0,0,0,0,0,0,0,0,0,0,0,0,0,0,0,0.0206,0.0206,0,0.0193,0.0193,0.0193,0.025,0.0251,0.0253,0.0254,0.0199,0.0197,0.0194,0,0,0,0,0,0,0,0,0,0,0,0,0,0.0303,0.0301,0.0206,0.0206,0.0205,0.0193,0.0193,0.0193,0.025,0.0251,0.0253,0.0254,0.02,0.0197,0.0194,0,0,0,0,0,0,0,0,0,0,0,0,0,0.0276,0.0301,0.0206,0.0229,0.0231,0.0193,0.0193,0.0193,0.0249,0.0251,0.0253,0.0255,0.0201,0.0197,0.0193,0.013,0,0,0.0181,0.0179,0,0,0,0,0,0,0,0,0.0278,0.0273,0.0226,0.0227,0.0229,0.0221,0.0207,0.0168,0.0249,0.0247,0.0254,0.0256,0.0199,0.0195,0.0195,0.0127,0.0125,0.0181,0.0178,0.0177,0.0175,0,0,0,0,0,0,0,0.0279,0.0274,0.0205,0.0225,0.0227,0.0247,0.0245,0.02,0.0214,0.0247,0.025,0.0241,0.02,0.0198,0.0193,0.0124,0.0181,0.0177,0.0175,0.0173,0.0059,0.0058,0,0,0,0,0,0,0.0269,0.0275,0.0205,0.0204,0.0254,0.0243,0.0242,0.0225,0.0216,0.0215,0.024,0.0244,0.0204,0.0198,0.0192,0.015,0.0177,0.0173,0.0171,0.0059,0.0059,0.0058,0,0,0,0,0,0,0.0271,0.0262,0.0206,0.0237,0.0231,0.0239,0.022,0.0224,0.0244,0.021,0.021,0.0258,0.0206,0.0197,0.0154,0.0147,0.0171,0.0167,0.006,0.0059,0.0058,0.0044,0,0,0,0,0,0,0.0274,0.0263,0.0253,0.0236,0.0228,0.019,0.0218,0.0222,0.0232,0.0238,0.0224,0.0221,0.0206,0.016,0.015,0.0142,0.0164,0.0061,0.006,0.0058,0.0045,0.0042,0.004,0,0,0,0,0,0.0277,0.0255,0.0252,0.0244,0.0212,0.0189,0.0188,0.0204,0.0231,0.0232,0.0217,0.0222,0.0146,0.0155,0.0143,0.0135,0.0061,0.006,0.0059,0.0046,0.0043,0.004,0,0,0,0,0,0,0.029,0.0257,0.0255,0.0223,0.0209,0.0198,0.0202,0.0208,0.02,0.0221,0.0195,0.0188,0.0148,0.014,0.015,0.01,0.0111,0.0107,0.0106,0.0103,0.01,0.0111,0.0161,0,0,0,0,0,0.0283,0.0264,0.0235,0.0213,0.021,0.0209,0.0205,0.0219,0.0205,0.0208,0.0191,0.0173,0.0128,0.0117,0.0081,0.0043,0.0038,0.0037,0.0035,0.0033,0.0035,0.0013,0.0009,0.0053,0.0053,0.0053,0,0,0.0279,0.0261,0.0248,0.0215,0.0215,0.0196,0.0215,0.0221,0.0201,0.0196,0.0175,0.0154,0.0113,0.0072,0.0057,0.007,0.0016,0.0031,0.0029,0.0032,0.0011,0.0007,0.0003,0.0052,0.0052,0.0052,0,0,0.0275,0.0252,0.0245,0.0231,0.0228,0.0208,0.021,0.0207,0.0208,0.0171,0.0162,0.0135,0.0083,0.0051,0.0024,-0.0016,-0.0004,-0.0009,-0.0007,-0.0028,-0.0032,-0.0035,-0.005,-0.0054,0.0,0.0,0.0,0,0.0276,0.0253,0.0239,0.0235,0.0213,0.0211,0.0196,0.018,0.0162,0.0146,0.0168,0.009,0.0065,-0.0007,-0.0005,-0.0024,-0.002,0.0006,-0.0031,-0.0034,-0.0037,-0.0052,-0.0057,-0.0,-0.0,-0.0,-0.0,0,0.0269,0.0254,0.0252,0.0228,0.0201,0.0192,0.0157,0.0144,0.014,0.0122,0.0075,0.0043,0.0006,-0.0007,-0.0019,-0.0054,-0.0041,-0.004,-0.0022,-0.0043,-0.0057,-0.0061,-0.0002,-0.0001,-0.0001,-0.0001,0,0,0.0259,0.0247,0.0249,0.0233,0.0199,0.0171,0.013,0.0076,0.0053,0.0042,0.0003,-0.0052,-0.0031,-0.0059,-0.0068,-0.0078,-0.0096,-0.005,-0.005,-0.0061,-0.0127,-0.0116,-0.012,-0.0088,-0.0089,-0.009,-0.0129,0,0.026,0.0249,0.023,0.0189,0.017,0.0135,0.0084,0.0042,0.0013,-0.0024,-0.0049,-0.008,-0.0065,-0.006,-0.0075,-0.0096,-0.0107,-0.0085,-0.0107,-0.0108,-0.0094,-0.0125,-0.0092,-0.0132,-0.0133,-0.0134,-0.0134,0,0.0255,0.0245,0.0227,0.0163,0.0151,0.0123,0.004,0.0004,-0.0052,-0.0061,-0.0083,-0.0098,-0.0126,-0.0096,-0.0137,-0.0113,-0.0113,-0.0125,-0.0126,-0.0113,-0.0106,-0.0107,-0.0143,-0.0142,-0.0142,-0.0141,-0.014,0,0.0251,0.0223,0.0205,0.019,0.0131,0.0111,0.0073,0.0011,-0.0021,-0.0055,-0.0071,-0.0114,-0.012,-0.0135,-0.0152,-0.013,-0.0196,-0.0178,-0.018,-0.018,-0.0169,-0.0165,-0.0207,-0.0207,-0.0207,-0.0207,-0.0207,0,0.0233,0.0213,0.0216,0.0207,0.0168,0.0131,0.0087,0.005,0.0007,-0.0041,-0.0058,-0.0101,-0.0121,-0.0167,-0.017,-0.0195,-0.0213,-0.0188,-0.0193,-0.0175,-0.0171,-0.0173,-0.0168,-0.0208,-0.0208,-0.0208,-0.0207,0,0.022,0.0227,0.0209,0.0184,0.0177,0.016,0.0113,0.0073,0.0052,-0.0007,-0.001,-0.0081,-0.0121,-0.0166,-0.0208,-0.0217,-0.0246,-0.0251,-0.0239,-0.0241,-0.0207,-0.0203,-0.0247,-0.0247,-0.0247,-0.0247,-0.0247,0,0.0201,0.0207,0.0216,0.0214,0.0212,0.019,0.0161,0.0118,0.0068,-0.0009,-0.0054,-0.0096,-0.0143,-0.02,-0.0234,-0.026,-0.0255,-0.0276,-0.0227,-0.0212,-0.0213,-0.0208,-0.0204,-0.0247,-0.0247,-0.0247,-0.0247,0,0.0164,0.0198,0.0187,0.0219,0.0209,0.0166,0.0124,0.0097,0.0025,0.0001,-0.0072,-0.0104,-0.0163,-0.0195,-0.0221,-0.0243,-0.0266,-0.0276,-0.0275,-0.0229,-0.0213,-0.0212,-0.0208,-0.0247,-0.0247,-0.0247,-0.0247,0,0.0139,0.0135,0.0167,0.0187,0.0193,0.0156,0.012,0.0056,0.0016,-0.0063,-0.009,-0.0134,-0.0165,-0.0189,-0.0226,-0.0234,-0.0216,-0.0213,-0.0215,-0.0215,-0.0188,-0.0163,-0.0193,0,0,0,0,0,0.0095,0.01,0.0121,0.0118,0.0141,0.0151,0.0091,0.0045,-0.0015,-0.0056,-0.0066,-0.0112,-0.0144,-0.0175,-0.0174,-0.0221,-0.0226,-0.0223,-0.0226,-0.0248,-0.0248,-0.022,0,0,0,0,0,0,0.0055,0.0068,0.0107,0.0104,0.011,0.0085,0.0073,0.001,-0.0023,-0.0061,-0.0073,-0.0097,-0.0126,-0.0119,-0.0161,-0.0172,-0.0173,-0.0243,-0.0243,-0.0248,-0.0248,-0.0248,-0.022,0,0,0,0,0]}]]